| time (UTC) | temp C | wind direction | speed KPH | gust KPH | rain 1hr cm | rain 24hr cm | rain mn cm | humidity % | barometer mb |
| 20260505201555 | 26 | 255 | 24.1 | 41.8 | 0.00 | 0.00 | 0.00 | 37 | 1007.7 |
| 20260505200056 | 27 | 245 | 22.5 | 37.0 | 0.00 | 0.00 | 0.00 | 38 | 1007.8 |
| 20260505194559 | 27 | 245 | 24.1 | 35.4 | 0.00 | 0.00 | 0.00 | 38 | 1008.0 |
| 20260505193124 | 26 | 221 | 17.7 | 43.5 | 0.00 | 0.00 | 0.00 | 41 | 1008.0 |
| 20260505191607 | 26 | 195 | 20.9 | 40.2 | 0.00 | 0.00 | 0.00 | 39 | 1008.3 |
| 20260505190055 | 26 | 263 | 20.9 | 46.7 | 0.00 | 0.00 | 0.00 | 39 | 1008.4 |
| 20260505184603 | 26 | 222 | 24.1 | 37.0 | 0.00 | 0.00 | 0.00 | 39 | 1008.7 |
| 20260505183057 | 26 | 217 | 19.3 | 40.2 | 0.00 | 0.00 | 0.00 | 41 | 1008.9 |
| 20260505181600 | 26 | 220 | 25.7 | 41.8 | 0.00 | 0.00 | 0.00 | 42 | 1008.8 |
| 20260505180113 | 26 | 239 | 22.5 | 38.6 | 0.00 | 0.00 | 0.00 | 42 | 1009.2 |
| 20260505174609 | 26 | 233 | 17.7 | 32.2 | 0.00 | 0.00 | 0.00 | 40 | 1009.2 |
| 20260505173108 | 26 | 221 | 24.1 | 37.0 | 0.00 | 0.00 | 0.00 | 39 | 1009.3 |
| 20260505171600 | 26 | 243 | 17.7 | 41.8 | 0.00 | 0.00 | 0.00 | 41 | 1009.6 |
| 20260505170059 | 26 | 249 | 25.7 | 35.4 | 0.00 | 0.00 | 0.00 | 42 | 1009.7 |
| 20260505164602 | 26 | 231 | 17.7 | 30.6 | 0.00 | 0.00 | 0.00 | 44 | 1009.7 |
| 20260505163058 | 26 | 236 | 14.5 | 29.0 | 0.00 | 0.00 | 0.00 | 46 | 1010.1 |
| 20260505161559 | 25 | 226 | 11.3 | 25.7 | 0.00 | 0.00 | 0.00 | 47 | 1010.1 |
| 20260505153105 | 25 | 264 | 14.5 | 25.7 | 0.00 | 0.00 | 0.00 | 51 | 1010.4 |
| 20260505151558 | 24 | 192 | 16.1 | 25.7 | 0.00 | 0.00 | 0.00 | 49 | 1010.2 |
| 20260505130109 | 18 | 224 | 12.9 | 17.7 | 0.00 | 0.00 | 0.00 | 63 | 1011.7 |
| 20260505124605 | 18 | 0 | 0.0 | 0.0 | 0.00 | 0.00 | 0.00 | 69 | 1011.7 |
| 20260505123112 | 17 | 0 | 0.0 | 0.0 | 0.00 | 0.00 | 0.00 | 75 | 1011.8 |
| 20260505121556 | 15 | 0 | 0.0 | 6.4 | 0.00 | 0.00 | 0.00 | 77 | 1011.5 |
| 20260505120108 | 13 | 24 | 3.2 | 4.8 | 0.00 | 0.00 | 0.00 | 79 | 1011.5 |
| 20260505114558 | 13 | 23 | 1.6 | 4.8 | 0.00 | 0.00 | 0.00 | 79 | 1011.5 |
| 20260505113059 | 12 | 21 | 3.2 | 6.4 | 0.00 | 0.00 | 0.00 | 82 | 1011.3 |
| 20260505111557 | 11 | 43 | 6.4 | 9.7 | 0.00 | 0.00 | 0.00 | 84 | 1011.1 |
| 20260505110106 | 10 | 46 | 3.2 | 6.4 | 0.00 | 0.00 | 0.00 | 85 | 1011.2 |
| 20260505101556 | 10 | 3 | 6.4 | 9.7 | 0.00 | 0.00 | 0.00 | 83 | 1010.9 |
| 20260505100058 | 10 | 359 | 1.6 | 3.2 | 0.00 | 0.00 | 0.00 | 82 | 1010.4 |
| 20260505094557 | 11 | 8 | 3.2 | 4.8 | 0.00 | 0.00 | 0.00 | 82 | 1010.6 |
| 20260505093054 | 11 | 261 | 3.2 | 9.7 | 0.00 | 0.00 | 0.00 | 81 | 1010.5 |
| 20260505091619 | 11 | 33 | 6.4 | 9.7 | 0.00 | 0.00 | 0.00 | 81 | 1010.3 |
| 20260505090120 | 11 | 39 | 8.0 | 11.3 | 0.00 | 0.00 | 0.00 | 80 | 1010.1 |
| 20260505084613 | 11 | 41 | 4.8 | 6.4 | 0.00 | 0.00 | 0.00 | 79 | 1010.2 |
| 20260505083108 | 11 | 11 | 4.8 | 6.4 | 0.00 | 0.00 | 0.00 | 79 | 1010.2 |
| 20260505081603 | 12 | 16 | 6.4 | 8.0 | 0.00 | 0.00 | 0.00 | 79 | 1010.1 |
| 20260505074555 | 12 | 27 | 4.8 | 6.4 | 0.00 | 0.00 | 0.00 | 78 | 1010.1 |
| 20260505073101 | 12 | 34 | 4.8 | 4.8 | 0.00 | 0.00 | 0.00 | 76 | 1009.8 |
| 20260505071613 | 12 | 39 | 0.0 | 4.8 | 0.00 | 0.00 | 0.00 | 76 | 1009.6 |
| 20260505070058 | 12 | 34 | 4.8 | 8.0 | 0.00 | 0.00 | 0.00 | 76 | 1009.8 |
| 20260505064605 | 12 | 46 | 4.8 | 8.0 | 0.00 | 0.00 | 0.00 | 76 | 1009.9 |
| 20260505063100 | 13 | 49 | 8.0 | 11.3 | 0.00 | 0.00 | 0.00 | 75 | 1010.0 |
| 20260505061609 | 13 | 43 | 4.8 | 6.4 | 0.00 | 0.00 | 0.00 | 75 | 1010.1 |
| 20260505060104 | 13 | 37 | 1.6 | 4.8 | 0.00 | 0.00 | 0.00 | 73 | 1010.1 |
| 20260505054556 | 13 | 44 | 3.2 | 4.8 | 0.00 | 0.00 | 0.00 | 70 | 1010.0 |
| 20260505053108 | 13 | 0 | 0.0 | 3.2 | 0.00 | 0.00 | 0.00 | 70 | 1010.1 |
| 20260505051604 | 13 | 41 | 3.2 | 6.4 | 0.00 | 0.00 | 0.00 | 71 | 1010.1 |
| 20260505041602 | 15 | 36 | 1.6 | 3.2 | 0.00 | 0.00 | 0.00 | 64 | 1009.8 |
| 20260505034557 | 15 | 152 | 0.0 | 1.6 | 0.00 | 0.00 | 0.00 | 63 | 1009.7 |
| 20260505033057 | 16 | 25 | 1.6 | 3.2 | 0.00 | 0.00 | 0.00 | 62 | 1009.8 |
| 20260505031556 | 16 | 0 | 1.6 | 6.4 | 0.00 | 0.00 | 0.00 | 59 | 1009.8 |
| 20260505030123 | 16 | 360 | 1.6 | 9.7 | 0.00 | 0.00 | 0.00 | 59 | 1009.8 |
| 20260505024559 | 16 | 31 | 6.4 | 9.7 | 0.00 | 0.00 | 0.00 | 57 | 1009.7 |
| 20260505023055 | 17 | 34 | 4.8 | 9.7 | 0.00 | 0.00 | 0.00 | 55 | 1009.6 |
| 20260505021557 | 18 | 176 | 3.2 | 14.5 | 0.00 | 0.00 | 0.00 | 51 | 1009.5 |
| 20260505020100 | 18 | 208 | 4.8 | 12.9 | 0.00 | 0.00 | 0.00 | 50 | 1009.6 |
| 20260505014610 | 18 | 219 | 8.0 | 17.7 | 0.00 | 0.00 | 0.00 | 50 | 1009.5 |
| 20260505013056 | 19 | 222 | 8.0 | 19.3 | 0.00 | 0.00 | 0.00 | 49 | 1009.6 |
| 20260505011557 | 19 | 220 | 9.7 | 19.3 | 0.00 | 0.00 | 0.00 | 49 | 1009.6 |
| 20260505004600 | 20 | 203 | 8.0 | 16.1 | 0.00 | 0.00 | 0.00 | 48 | 1009.2 |
| 20260505003059 | 20 | 203 | 8.0 | 12.9 | 0.00 | 0.00 | 0.00 | 45 | 1009.0 |
| 20260505001601 | 20 | 203 | 6.4 | 16.1 | 0.00 | 0.00 | 0.00 | 46 | 1008.8 |
| 20260504234555 | 21 | 231 | 8.0 | 20.9 | 0.00 | 0.00 | 0.00 | 44 | 1008.7 |
| 20260504233059 | 21 | 225 | 9.7 | 25.7 | 0.00 | 0.00 | 0.00 | 44 | 1008.6 |
| 20260504231555 | 21 | 224 | 14.5 | 29.0 | 0.00 | 0.00 | 0.00 | 43 | 1008.6 |
| 20260504230054 | 22 | 237 | 9.7 | 25.7 | 0.00 | 0.00 | 0.00 | 43 | 1008.6 |
| 20260504224557 | 22 | 214 | 19.3 | 33.8 | 0.00 | 0.00 | 0.00 | 42 | 1008.6 |
| 20260504223117 | 22 | 190 | 19.3 | 33.8 | 0.00 | 0.00 | 0.00 | 42 | 1008.7 |
| 20260504221558 | 22 | 230 | 17.7 | 29.0 | 0.00 | 0.00 | 0.00 | 42 | 1008.8 |
| 20260504214555 | 22 | 257 | 24.1 | 35.4 | 0.00 | 0.00 | 0.00 | 41 | 1008.8 |
| 20260504213101 | 22 | 212 | 17.7 | 30.6 | 0.00 | 0.00 | 0.00 | 40 | 1008.7 |
| 20260504211651 | 22 | 212 | 19.3 | 33.8 | 0.00 | 0.00 | 0.00 | 40 | 1008.8 |
| 20260504210056 | 22 | 217 | 22.5 | 35.4 | 0.00 | 0.00 | 0.00 | 39 | 1008.7 |
| 20260504204604 | 22 | 238 | 20.9 | 33.8 | 0.00 | 0.00 | 0.00 | 39 | 1008.7 |
| 20260504203107 | 22 | 252 | 16.1 | 29.0 | 0.00 | 0.00 | 0.00 | 40 | 1008.9 |